Regional Weather Roundup
Issued by NWS Charleston, WV

Home | Current Version | Previous Version | Text Only | Print | Product List | Glossary Off
Versions: 1 2 3 4 5 6 7 8 9 10 11 12 13 14 15 16 17 18 19 20 21 22 23 24 25 26 27 28 29 30 31 32 33 34 35 36 37 38 39 40 41 42 43 44 45 46 47 48 49 50

306
ASUS41 KRLX 231410
RWRRLX
West Virginia Regional Weather Roundup
National Weather Service Charleston WV
Issued by National Weather Service Pittsburgh PA
1000 AM EDT TUE AUG 23 2016

Note: "fair" indicates few or no clouds below 12,000 feet with no
significant weather and/or obstructions to visibility.

WVZ003-231500-
Northern Panhandle of West Virginia

CITY           SKY/WX    TMP DP  RH WIND       PRES   REMARKS
WHEELING       SUNNY     72  61  68 VRB3      30.33S
$$

WVZ009-231500-
Northwest West Virginia

CITY           SKY/WX    TMP DP  RH WIND       PRES   REMARKS
PARKERSBURG    SUNNY     67  62  84 CALM      30.35S
$$

WVZ006-231500-
Western West Virginia

CITY           SKY/WX    TMP DP  RH WIND       PRES   REMARKS
HUNTINGTON     SUNNY     68  59  73 E3        30.31S
$$

WVZ015-231500-
West Central West Virginia

CITY           SKY/WX    TMP DP  RH WIND       PRES   REMARKS
CHARLESTON     SUNNY     67  60  78 N3        30.32S
$$

WVZ031-231500-
North Central West Virginia

CITY           SKY/WX    TMP DP  RH WIND       PRES   REMARKS
CLARKSBURG     MOSUNNY   68  61  78 CALM      30.34S
MORGANTOWN     SUNNY     70  59  68 VRB3      30.35F
$$

WVZ035-042-231500-
South Central West Virginia

CITY           SKY/WX    TMP DP  RH WIND       PRES   REMARKS
BECKLEY        SUNNY     67  57  70 SE6       30.37S
BLUEFIELD      SUNNY     66  55  67 VRB5      30.39R
$$

WVZ045-231500-
Greenbrier Valley of West Virginia

CITY           SKY/WX    TMP DP  RH WIND       PRES   REMARKS
LEWISBURG      SUNNY     62  57  84 CALM      30.38S
$$

WVZ047-231500-
Northern Mountains of West Virginia

CITY           SKY/WX    TMP DP  RH WIND       PRES   REMARKS
ELKINS         MOSUNNY   61  56  83 CALM      30.38S
$$

WVZ052-231500-
Eastern Panhandle of West Virginia

CITY           SKY/WX    TMP DP  RH WIND       PRES   REMARKS
MARTINSBURG    MOSUNNY   70  59  68 CALM      30.36R
PETERSBURG     PTSUNNY   69  60  73 CALM      30.36S
$$




USA.gov is the U.S. government's official web portal to all federal, state and local government web resources and services.